Date,TemperatureHighF,TemperatureAvgF,TemperatureLowF,DewpointHighF,DewpointAvgF,DewpointLowF,HumidityHigh,HumidityAvg,HumidityLow,PressureMaxIn,PressureMinIn,WindSpeedMaxMPH,WindSpeedAvgMPH,GustSpeedMaxMPH,PrecipitationSumIn
2013-3-1,48.9,38.6,26.5,34.8,29.7,24.7,95,72,48,29.85,29.77,9,1,11,0.00
2013-3-2,47.9,37.9,28.3,32.1,27.8,21.6,95,69,47,29.86,29.74,10,1,10,0.00
2013-3-3,47.0,35.9,25.6,26.5,22.1,19.6,85,58,41,29.92,29.78,14,1,14,0.00
2013-3-4,52.3,35.2,20.9,26.1,20.5,17.1,90,60,27,30.06,29.92,14,1,14,0.00
2013-3-5,47.5,40.8,30.9,44.5,36.4,26.1,97,85,57,30.01,29.48,5,0,5,0.30
2013-3-6,47.7,42.8,37.4,46.2,33.7,27.9,98,72,52,29.97,29.44,28,3,28,0.06
2013-3-7,53.4,42.6,31.5,34.0,30.8,27.1,87,64,46,30.17,29.96,14,1,14,0.00
2013-3-8,56.9,44.2,31.9,31.4,27.9,25.9,79,55,32,30.22,30.08,15,2,15,0.00
2013-3-9,63.8,45.8,29.0,37.2,31.3,25.6,89,61,30,30.27,30.15,10,1,10,0.00
2013-3-10,67.8,47.5,29.2,37.9,32.5,27.4,96,63,24,30.26,30.13,10,0,10,0.00
2013-3-11,68.3,52.5,34.7,54.7,44.6,30.3,95,76,57,30.17,29.86,9,1,13,0.00
2013-3-12,70.3,61.5,50.6,62.7,53.8,34.3,98,78,48,29.87,29.67,14,1,14,0.81
2013-3-13,58.4,47.3,32.5,35.6,29.3,21.9,94,52,30,30.07,29.87,17,2,17,0.00
2013-3-14,54.9,40.2,27.3,26.5,22.5,18.6,78,52,29,30.18,30.04,13,1,13,0.00
2013-3-15,63.1,43.9,24.1,38.4,30.3,21.4,93,63,35,30.12,29.82,13,1,13,0.00
2013-3-16,79.0,59.4,41.6,52.5,46.0,36.6,92,65,37,29.83,29.58,15,1,15,0.00
2013-3-17,60.4,51.8,42.4,53.0,46.5,39.3,94,83,66,30.09,29.75,13,2,13,0.00
2013-3-18,43.3,40.9,38.7,41.7,39.5,37.4,99,95,90,30.12,29.76,9,1,9,0.50
2013-3-19,67.8,52.5,41.1,48.1,36.6,17.7,98,64,22,29.95,29.74,17,2,17,0.01
2013-3-20,57.9,46.5,33.0,30.2,22.4,12.1,85,42,22,30.05,29.70,12,1,12,0.00
2013-3-21,47.8,40.3,31.9,33.1,21.7,13.2,85,49,30,29.92,29.66,15,2,15,0.00
2013-3-22,54.6,38.1,22.0,29.8,19.1,13.6,80,49,26,30.02,29.90,14,1,14,0.00
2013-3-23,55.9,43.5,34.3,35.1,30.3,24.4,87,62,37,29.99,29.83,6,0,6,0.00
2013-3-24,40.8,38.1,31.9,38.8,36.0,29.4,96,92,80,29.87,29.50,14,1,14,0.71
2013-3-25,37.7,37.1,36.9,36.6,35.8,35.3,96,95,93,29.54,29.49,4,0,5,0.01
2013-3-26,49.0,41.5,29.3,31.7,28.9,25.9,88,62,49,30.04,29.75,3,1,14,0.00
2013-3-27,52.6,41.3,30.3,29.2,25.8,23.3,84,56,34,30.17,30.05,12,1,23,0.00
2013-3-28,57.8,42.9,29.3,30.8,26.9,23.9,80,56,31,30.23,30.08,20,1,20,0.00
2013-3-29,61.1,44.3,26.9,35.0,29.0,24.1,93,60,28,30.27,30.10,13,1,13,0.00
2013-3-30,67.3,52.0,37.9,47.3,39.5,33.3,90,66,37,30.17,30.00,10,0,10,0.00
2013-3-31,68.6,56.1,46.5,62.4,52.3,42.9,98,88,68,30.03,29.73,14,1,14,0.58